{"data":{"norad_id":63315,"intl_designator":"2025-057J","name":"STARLINK-11652 [DTC]","alt_names":[],"object_type":"PAYLOAD","status":"ACTIVE","operator":null,"country":"US","launch_date":"2025-03-18","launch_site_code":"AFETR","launch_vehicle":null,"mission":null,"orbit_class":"UNKNOWN","rcs_meters":null,"size_class":null,"mass_kg":null,"dimensions":null,"purposes":["comms"],"wikipedia_slug":null,"has_3d_model":false,"image_url":null,"decayed_at":null,"tle_current":{"epoch":"2026-09-20T19:10:46.591968Z","epoch_age_seconds":133049,"freshness":"FRESH","line1":"1 63315U 25057J   26263.79915037  .00133908  00000+0  10292-2 0  9996","line2":"2 63315  42.9999 168.4396 0001387 242.0225 118.0503 15.70867524 87890","mean_motion":15.70867524,"eccentricity":0.0001387,"inclination_deg":42.9999,"raan_deg":168.4396,"arg_perigee_deg":242.0225,"mean_anomaly_deg":118.0503,"bstar":0.0010292,"rev_number":8789,"period_min":91.669092269044,"perigee_km":355.48231141828,"apogee_km":357.35047652977,"semimajor_km":6734.553393974,"source":"CELESTRAK","updated_at":"2026-09-21T09:00:34.968570Z"}}}